^^
North Bend WA Weather Station Historical Data
 
Daily Summary for February 07, 2023 Units:  English    Metric   Both
Daily Weekly Monthly Yearly Custom
  Current: High: Low: Average:
Temperature: 43 °F 45 °F 43 °F 44 °F
Dew Point: 42 °F 43 °F 41 °F 42.2 °F
Humidity: 96% 96% 89% 93%
Wind Speed: 8mph 8mph 2mph 4.9mph
Wind Gust: 17mph 18mph - -
WindSE - - SE
Pressure: 30.1 in 30.26 in 30.1 in -
Precipitation: 0.36 in      
Historical Graphs
 
 
Tabular Data for February 07, 2023
Time Temperature Dew Point Pressure Wind Wind Speed Wind Gust Humidity Rainfall Rate (Hourly) solar
00:04 45 °F 42 °F 30.26 in SSE 7 mph 13 mph 89% 0 in 0 W/m2
00:09 45 °F 42 °F 30.26 in SE 5 mph 13 mph 89% 0 in 0 W/m2
00:14 45 °F 42 °F 30.26 in SE 5 mph 12 mph 89% 0 in 0 W/m2
00:19 45 °F 42 °F 30.26 in SE 7 mph 14 mph 89% 0 in 0 W/m2
00:24 45 °F 42 °F 30.26 in SE 7 mph 14 mph 89% 0 in 0 W/m2
00:29 45 °F 42 °F 30.26 in SSE 7 mph 16 mph 89% 0 in 0 W/m2
00:34 45 °F 42 °F 30.25 in SE 5 mph 16 mph 89% 0 in 0 W/m2
00:39 45 °F 42 °F 30.25 in SE 7 mph 14 mph 89% 0 in 0 W/m2
00:44 44 °F 42 °F 30.25 in SSE 6 mph 15 mph 89% 0 in 0 W/m2
00:49 44 °F 42 °F 30.25 in SE 6 mph 15 mph 89% 0 in 0 W/m2
00:54 44 °F 41 °F 30.25 in SE 6 mph 12 mph 89% 0 in 0 W/m2
00:59 45 °F 42 °F 30.25 in SE 6 mph 16 mph 89% 0 in 0 W/m2
01:04 45 °F 42 °F 30.25 in SE 5 mph 16 mph 89% 0 in 0 W/m2
01:09 45 °F 42 °F 30.25 in SE 4 mph 12 mph 90% 0 in 0 W/m2
01:14 44 °F 42 °F 30.25 in SE 5 mph 17 mph 90% 0 in 0 W/m2
01:19 44 °F 42 °F 30.24 in SE 5 mph 12 mph 90% 0 in 0 W/m2
01:24 44 °F 42 °F 30.24 in ESE 6 mph 17 mph 90% 0 in 0 W/m2
01:29 44 °F 42 °F 30.24 in ESE 5 mph 17 mph 90% 0 in 0 W/m2
01:34 44 °F 42 °F 30.24 in ESE 6 mph 13 mph 89% 0 in 0 W/m2
01:39 44 °F 42 °F 30.24 in SE 6 mph 13 mph 90% 0 in 0 W/m2
01:44 44 °F 42 °F 30.24 in ESE 6 mph 14 mph 90% 0 in 0 W/m2
01:49 44 °F 42 °F 30.23 in ESE 6 mph 14 mph 90% 0 in 0 W/m2
01:54 45 °F 42 °F 30.23 in SE 7 mph 12 mph 89% 0 in 0 W/m2
01:59 45 °F 42 °F 30.23 in SE 6 mph 13 mph 89% 0.01 in 0 W/m2
02:04 45 °F 42 °F 30.23 in SE 7 mph 13 mph 90% 0.01 in 0 W/m2
02:09 44 °F 42 °F 30.23 in ESE 5 mph 12 mph 90% 0.01 in 0 W/m2
02:14 45 °F 42 °F 30.23 in SE 6 mph 12 mph 89% 0.01 in 0 W/m2
02:19 45 °F 42 °F 30.22 in ESE 4 mph 12 mph 89% 0.01 in 0 W/m2
02:24 45 °F 42 °F 30.22 in SE 6 mph 12 mph 90% 0.01 in 0 W/m2
02:29 45 °F 42 °F 30.22 in ESE 4 mph 12 mph 90% 0.01 in 0 W/m2
02:34 44 °F 42 °F 30.22 in SE 4 mph 9 mph 91% 0.01 in 0 W/m2
02:39 44 °F 42 °F 30.22 in ESE 4 mph 9 mph 92% 0.02 in 0 W/m2
02:44 44 °F 42 °F 30.22 in SE 4 mph 10 mph 92% 0.02 in 0 W/m2
02:49 44 °F 42 °F 30.22 in SE 6 mph 13 mph 92% 0.02 in 0 W/m2
02:54 44 °F 42 °F 30.22 in SE 5 mph 13 mph 93% 0.02 in 0 W/m2
02:59 44 °F 42 °F 30.21 in SE 5 mph 12 mph 93% 0.02 in 0 W/m2
03:04 44 °F 42 °F 30.21 in SE 6 mph 12 mph 93% 0.02 in 0 W/m2
03:09 44 °F 42 °F 30.21 in SE 7 mph 13 mph 93% 0.02 in 0 W/m2
03:14 44 °F 42 °F 30.2 in SE 5 mph 13 mph 94% 0.02 in 0 W/m2
03:19 44 °F 42 °F 30.2 in SE 4 mph 12 mph 94% 0.02 in 0 W/m2
03:24 43 °F 42 °F 30.2 in SE 5 mph 10 mph 94% 0.02 in 0 W/m2
03:29 43 °F 42 °F 30.19 in SE 4 mph 12 mph 94% 0.03 in 0 W/m2
03:34 43 °F 42 °F 30.19 in SE 6 mph 12 mph 94% 0.03 in 0 W/m2
03:39 43 °F 42 °F 30.19 in ESE 4 mph 12 mph 94% 0.03 in 0 W/m2
03:44 43 °F 42 °F 30.19 in SE 3 mph 10 mph 95% 0.03 in 0 W/m2
03:49 43 °F 42 °F 30.18 in SE 5 mph 12 mph 94% 0.03 in 0 W/m2
03:54 44 °F 42 °F 30.18 in ESE 4 mph 12 mph 94% 0.03 in 0 W/m2
03:59 44 °F 42 °F 30.18 in SE 5 mph 12 mph 94% 0.03 in 0 W/m2
04:04 44 °F 42 °F 30.18 in SE 4 mph 12 mph 94% 0.03 in 0 W/m2
04:09 44 °F 42 °F 30.17 in ESE 3 mph 7 mph 94% 0.03 in 0 W/m2
04:14 44 °F 42 °F 30.17 in SSE 2 mph 6 mph 95% 0.03 in 0 W/m2
04:19 44 °F 42 °F 30.17 in SE 5 mph 12 mph 95% 0.03 in 0 W/m2
04:24 44 °F 42 °F 30.17 in SE 4 mph 12 mph 94% 0.03 in 0 W/m2
04:29 44 °F 42 °F 30.17 in SE 2 mph 11 mph 94% 0.03 in 0 W/m2
04:34 44 °F 42 °F 30.17 in SE 3 mph 7 mph 95% 0.03 in 0 W/m2
04:39 44 °F 42 °F 30.17 in SE 2 mph 5 mph 95% 0.03 in 0 W/m2
04:44 44 °F 42 °F 30.17 in SE 4 mph 10 mph 95% 0.02 in 0 W/m2
04:49 44 °F 42 °F 30.16 in SE 3 mph 10 mph 95% 0.02 in 0 W/m2
04:54 44 °F 42 °F 30.16 in SE 6 mph 10 mph 95% 0.03 in 0 W/m2
04:59 44 °F 42 °F 30.16 in SSE 4 mph 10 mph 95% 0.03 in 0 W/m2
05:04 43 °F 42 °F 30.16 in SE 5 mph 12 mph 95% 0.03 in 0 W/m2
05:09 43 °F 42 °F 30.16 in ESE 4 mph 12 mph 95% 0.02 in 0 W/m2
05:14 43 °F 42 °F 30.15 in ESE 4 mph 11 mph 95% 0.02 in 0 W/m2
05:19 43 °F 42 °F 30.15 in ESE 5 mph 12 mph 95% 0.03 in 0 W/m2
05:24 43 °F 42 °F 30.15 in ESE 4 mph 12 mph 95% 0.03 in 0 W/m2
05:29 44 °F 42 °F 30.15 in ESE 3 mph 7 mph 95% 0.03 in 0 W/m2
05:34 44 °F 43 °F 30.15 in ESE 4 mph 7 mph 95% 0.02 in 0 W/m2
05:39 44 °F 43 °F 30.15 in ESE 4 mph 11 mph 95% 0.03 in 0 W/m2
05:44 44 °F 43 °F 30.15 in ESE 5 mph 12 mph 94% 0.03 in 0 W/m2
05:49 44 °F 43 °F 30.15 in SE 4 mph 12 mph 94% 0.03 in 0 W/m2
05:54 44 °F 42 °F 30.15 in ESE 4 mph 12 mph 94% 0.03 in 0 W/m2
05:59 44 °F 43 °F 30.15 in ESE 5 mph 10 mph 95% 0.03 in 0 W/m2
06:04 44 °F 43 °F 30.15 in ESE 5 mph 13 mph 95% 0.03 in 0 W/m2
06:09 44 °F 43 °F 30.15 in ESE 3 mph 13 mph 95% 0.04 in 0 W/m2
06:14 44 °F 43 °F 30.15 in E 5 mph 18 mph 95% 0.05 in 0 W/m2
06:19 44 °F 43 °F 30.14 in ESE 5 mph 18 mph 95% 0.05 in 0 W/m2
06:24 44 °F 43 °F 30.14 in E 5 mph 12 mph 95% 0.06 in 0 W/m2
06:29 44 °F 43 °F 30.14 in ESE 5 mph 12 mph 95% 0.07 in 0 W/m2
06:34 44 °F 43 °F 30.14 in E 4 mph 12 mph 95% 0.08 in 0 W/m2
06:39 44 °F 43 °F 30.13 in E 5 mph 12 mph 94% 0.09 in 0 W/m2
06:44 45 °F 43 °F 30.13 in ESE 5 mph 17 mph 93% 0.09 in 0 W/m2
06:49 45 °F 43 °F 30.12 in ESE 3 mph 17 mph 93% 0.1 in 0 W/m2
06:54 45 °F 43 °F 30.12 in ESE 3 mph 9 mph 93% 0.11 in 0 W/m2
06:59 45 °F 43 °F 30.12 in SSE 3 mph 9 mph 94% 0.11 in 0 W/m2
07:04 44 °F 43 °F 30.12 in SSE 3 mph 10 mph 94% 0.12 in 0 W/m2
07:09 44 °F 43 °F 30.12 in SE 7 mph 15 mph 94% 0.12 in 0 W/m2
07:14 44 °F 43 °F 30.12 in ESE 5 mph 16 mph 95% 0.12 in 0 W/m2
07:19 44 °F 42 °F 30.11 in SE 5 mph 16 mph 95% 0.12 in 0 W/m2
07:24 44 °F 42 °F 30.11 in ESE 4 mph 13 mph 95% 0.12 in 0 W/m2
07:29 44 °F 42 °F 30.11 in SE 4 mph 12 mph 95% 0.11 in 0 W/m2
07:34 44 °F 42 °F 30.11 in SE 4 mph 10 mph 95% 0.1 in 0 W/m2
07:39 44 °F 43 °F 30.11 in SE 6 mph 13 mph 95% 0.1 in 0 W/m2
07:44 44 °F 42 °F 30.11 in SE 6 mph 15 mph 95% 0.1 in 4.8 W/m2
07:49 44 °F 42 °F 30.11 in SE 5 mph 15 mph 95% 0.1 in 15.3 W/m2
07:54 44 °F 42 °F 30.11 in SE 7 mph 16 mph 95% 0.1 in 19.6 W/m2
07:59 43 °F 42 °F 30.11 in SSE 4 mph 16 mph 96% 0.1 in 19.5 W/m2
08:04 43 °F 42 °F 30.11 in SE 7 mph 15 mph 96% 0.1 in 19.6 W/m2
08:09 43 °F 42 °F 30.1 in SE 6 mph 15 mph 96% 0.1 in 19.6 W/m2
08:14 43 °F 42 °F 30.1 in SSE 6 mph 16 mph 96% 0.1 in 26.3 W/m2
08:19 43 °F 42 °F 30.1 in SE 5 mph 16 mph 96% 0.1 in 30.7 W/m2
08:24 43 °F 42 °F 30.1 in SSE 8 mph 15 mph 96% 0.1 in 41.8 W/m2
08:29 43 °F 42 °F 30.1 in SE 8 mph 17 mph 96% 0.09 in 41.8 W/m2
North Bend WA Weather
Compliments of Weather Underground - 12.65 mb